Location: Escalona
(40.1669°N, 4.4048°W)
Time: 05:49:12
(UTC+00:00)

USA 186 - Pass Details

Date: 08 August 2025
Orbit: 338 x 359 km, 97.0° (Epoch: 19 May)

Event Time Altitude Azimuth Distance (km) Brightness Sun altitude
Exits shadow 20:28:48 11° 174° (S) 1,205 3.7 -11.9°
Maximum altitude 20:31:20 70° 258° (WSW) 363 1.5 -12.3°
Drops below altitude 10° 20:34:03 10° 344° (NNW) 1,288 5.0 -12.8°
Sets 20:35:59 0° 347° (NNW) 2,133 6.1 -13.1°
